Current Version              Previous Version:    01  02  03  04  05  06  07  08  09  10  11  12  13  14  15  16  17  18  19  20  21  22  23  24  25  26  27  28  29  30  
   31  32  33  34  35  36  37  38  39  40  41  42  43  44  45  46  47  48  49  50  51  52  53  54  55  56  57  58  59  60  

[Printable]
514
ASUS44 KLUB 200310
RWRTX
WEST TEXAS WEATHER ROUNDUP
NATIONAL WEATHER SERVICE LUBBOCK TX
1000 PM CDT FRI SEP 19 2014

NOTE: "FAIR" INDICATES FEW OR NO CLOUDS BELOW 12,000 FEET WITH NO
SIGNIFICANT WEATHER AND/OR OBSTRUCTIONS TO VISIBILITY.

TXZ004-006>008-010-012-014-016-OKZ002-200400-
TEXAS PANHANDLE/OKLAHOMA PANHANDLE

CITY           SKY/WX    TMP DP  RH WIND       PRES   REMARKS
AMARILLO       PTCLDY    68  64  87 S12       30.04R
BORGER         CLEAR     73  62  68 S7        30.01R
CANADIAN       CLEAR     73  63  72 S8        29.97R
DALHART        CLEAR     67  63  87 S9        30.04R
DUMAS          CLEAR     65  63  93 S7        30.03R
GUYMON         CLEAR     71  64  78 S9        29.97R
HEREFORD       CLEAR     67  66  96 SE6       30.06R
PAMPA          CLEAR     66  59  79 S7        30.03R
PERRYTON       CLEAR     71  57  62 S9        29.98S
$$

TXZ026-029-035-045-048-200400-
SOUTHERN PANHANDLE/SOUTH PLAINS/ROLLING PLAINS

CITY           SKY/WX    TMP DP  RH WIND       PRES   REMARKS
CHILDRESS      PTCLDY    75  66  73 SE7       29.98R
SEMINOLE       CLOUDY    69  68  98 CALM      30.02R FOG
LUBBOCK        LGT RAIN  69  67  93 SE6       30.02R
PLAINVIEW      MOCLDY    70  68  93 SE6       30.02R
SNYDER         CLOUDY    72  69  90 CALM      30.00R
$$

TXZ052-054-060>062-072-078-127-140-154-169-200400-
PERMIAN BASIN/CONCHO VALLEY/BIG COUNTRY/EDWARDS PLATEAU

CITY           SKY/WX    TMP DP  RH WIND       PRES   REMARKS
ABILENE        CLOUDY    76  70  82 S8        29.97R
BIG SPRING     CLOUDY    74  70  87 E6        29.99R
BRADY          CLEAR     70  70 100 SE3       29.98R
JUNCTION       PTCLDY    74  70  87 E8        29.97R
MIDLAND        MOCLDY    72  69  90 SE12      29.97R
ODESSA         CLOUDY    73  68  84 SE13      29.98R
SAN ANGELO     MOCLDY    73  70  90 E5        29.96R
SONORA         PTCLDY    75  70  83 E9        30.00R
SWEETWATER     CLOUDY    74  71  90 SE7       30.02R
WINK           CLOUDY    75  70  84 E8        29.95R
$$

TXZ055-058-074-075-080-082-200400-
FAR WEST/SOUTHWEST MOUNTAINS/TRANS PECOS

CITY           SKY/WX    TMP DP  RH WIND       PRES   REMARKS
ALPINE         MOCLDY    68  63  82 SE3       30.10R
DRYDEN           N/A     86  69  56 SE13      29.91R
EL PASO        PTCLDY    75  65  70 E3        29.97R
FORT STOCKTON  CLOUDY    74  68  81 SE9       29.96R
GUADALUPE PASS FOG       66  66 100 NE18        N/A  VSB 1/4
MARFA          PTCLDY    68  64  88 NE3       30.08R
PECOS          CLOUDY    73  69  85 E16G26    29.95R THUNDER
PRESIDIO       FAIR      86  65  48 NE3       29.88R
$$

TXZ014-016-019-021>030-083-200400
TEXAS TECH WEST TEXAS MESONET/TEXAS PANHANDLE/NORTHERN SOUTH PLAINS

CITY           SKY/WX    TMP DP  RH WIND       PRES   REMARKS
ABERNATHY 5ENE   N/A     68  65  92 E2        30.04R
AMARILLO 9NNE    N/A     66  64  93 S7        30.02R
AMARILLO 7SSE    N/A     67  65  93 S8        30.05R
AMHERST 1NE      N/A     66  65  96 SE3       30.04R
BOOTLEG 11WNW    N/A     64  63  96 SE12      30.09R
CANADIAN 6E      N/A     71  62  71 SE7       29.97R
CAPROCK CYN SP   N/A     68  66  92 S6        30.00R
CHILDRESS 2NNE   N/A     74  65  72 SE9       29.97R
CLARENDON 2WSW   N/A     68  61  80 S2        30.01R
CLAUDE 12SW      N/A     69  63  80 S5        30.04R
DIMMITT 2NE      N/A     65  63  94 SE3       30.06R
FLOYDADA 2NNE    N/A     65  64  95 E2        30.02R
FRIONA 2NE       N/A     65  64  93 SE6       30.07R
GOODLETT 3W      N/A     75  64  67 SE8       29.95R
HART 3N          N/A     65  64  96 SE5       30.05R
HEREFORD 2NW     N/A     66  63  90 SE6       30.05R
MCLEAN 1E        N/A     70  62  74 SE7       29.99R
MEMPHIS 1NE      N/A     73  64  73 CALM      29.97R
MULESHOE 2SSW    N/A     65  64  96 SE5       30.04R
OLTON 6S         N/A     67  65  92 E6        30.04R
PALO DURO SP     N/A     69  64  84 S5        30.06R
PAMPA 2E         N/A     68  62  79 S7        30.02R
PLAINVIEW 1S     N/A     69  66  92 E5        30.03R
SILVERTON 7ESE   N/A     66  64  91 SE6       30.02S
TULIA 2ENE       N/A     65  64  96 SE5       30.04R
TURKEY 2WSW      N/A     70  65  85 S5        29.98R
UMBARGER 3NNE    N/A     66  64  94 S6        30.06R
$$

TXZ033>036-039>041-045>048-200400
TEXAS TECH WEST TEXAS MESONET/SOUTH PLAINS

CITY           SKY/WX    TMP DP  RH WIND       PRES   REMARKS
AIKEN 3WSW       N/A     67  65  96 SE5       30.04R
ANDREWS 2NE      N/A     71  67  85 E6        30.00R
ANTON 6SSW       N/A     68  67  94 SE5       30.03R
BROWNFIELD 2S  LGT RAIN  67  66  96 S8        30.02R
DENVR CTY 7WNW   N/A     66  64  91 NE8       30.02R
GAIL 2ESE        N/A     71  68  90 SE5       29.98S
LAMESA 2SE       N/A     70  68  93 E8        30.00R
LEVELLAND 4S     N/A     66  64  93 E3        30.03R
LUBBOCK 3WNW     N/A     69  66  92 NE2       30.03R
MORTON 1ENE      N/A     65  64  95 E5        30.04R
ODONNELL 1N      N/A     69  67  93 SE8       30.01R
PLAINS 3N        N/A     67  64  92 E7        30.03R
RALLS 1SE        N/A     69  67  93 SE5       30.02R
REESE CENTER   LGT RAIN  68  66  94 E8        30.03R
SEAGRAVES 1SW    N/A     67  66  96 NE5       30.01S
SEMINOLE 2NNE    N/A     68  66  94 NE7       30.01R
SLATON 2NE       N/A     69  66  90 E5        30.01R
SNYDER 3E        N/A     72  69  91 SE5       29.99R
SUNDOWN 8SW      N/A     66  64  94 E3        30.03S
TAHOKA 3NNE      N/A     69  67  94 E7        30.01R
WOLFFORTH 6SSW   N/A     68  67  98 E5        30.02S
$$

TXZ031-032-036>038-042>044-200400-
TEXAS TECH WEST TEXAS MESONET/ROLLING PLAINS

CITY           SKY/WX    TMP DP  RH WIND       PRES   REMARKS
FLUVANNA 3WNW    N/A     70  66  87 SE5       29.99S
GRAHAM 5SSW      N/A     70  67  89 SE7       30.00R
GUTHRIE 10WSW    N/A     73  67  79 E9        29.96R
HASKELL 1NW      N/A     74  65  72 SE5       29.96R
JAYTON 1SSE      N/A     74  67  78 E5        29.96S
KNOX CITY 3NW    N/A     74  66  76 SE5       29.96R
LK A HENRY 1NW   N/A     73  69  88 SE2       29.98R
NORTHFIELD 1S    N/A     71  67  87 S7        29.96S
ODELL 4ENE       N/A     75  66  73 SE8       29.96R
PADUCAH 10SW     N/A     71  66  85 SE8       29.96S
POST 1NE         N/A     71  70  97 SE5       29.99R
RRING SPRGS 3N   N/A     69  65  87 S5        29.99S
SEYMOUR 3NW      N/A     75  64  69 SE5       29.95R
SPUR 1W          N/A     72  66  82 E2        29.97S
WEINERT 2NNE     N/A     74  67  78 SE3       29.96R
WHITE RVR 6NE    N/A     70  67  88 E6        29.99R
$$

TXZ052-054-060>062-072-078-127-140-154-169-200400-
TEXAS TECH WEST TEXAS MESONET/PERMIAN BASIN/
CONCHO VALLEY/BIG COUNTRY/EDWARDS PLATEAU

CITY           SKY/WX    TMP DP  RH WIND       PRES   REMARKS
COYANOSA 2N      N/A     76  71  83 E9        29.95R
JUNCTION 1SSW    N/A     74  70  89 NE5       29.97R
MERTZON 3NNE     N/A     73  69  89 E3        29.98R
SAN ANGELO 7NW   N/A     73  68  84 E8        29.98R
STRLNG CT 4WSW   N/A     74  70  88 E8        29.98S
ST LAWRNCE 5SW   N/A     72  70  92 E12       29.97S
SWEETWATR 11SW   N/A     72  70  92 SE10      30.00R
WALL 1E          N/A     72  68  87 E8        29.98R
$$

TXZ055-058-074-075-080-082-200400-
TEXAS TECH WEST TEXAS MESONET/FAR WEST/SOUTHWEST MOUNTAINS/TRANS PECOS

CITY           SKY/WX    TMP DP  RH WIND       PRES   REMARKS
PRSMN GAP BBNP   N/A     69  67  92 N12       29.95S
GUADLPE MTN NP   N/A     65  63  95 NE2       30.11R
$$